Martinsville, VA

6:23 AM EDT on May 27, 2018 (GMT -0400)
Blue Ridge

Weather History for KMTV - January, 2013

Change the Weather History Date:

Monday, January 28, 2013

  Actual Average (WUND) Record (WUND)
Temperature  
Mean Temperature 44 °F -  
Max Temperature 53 °F - - (-1)
Min Temperature 35 °F - - (-1)
Degree Days  
Heating Degree Days 21    
Moisture  
Dew Point 36 °F    
Average Humidity 77    
Maximum Humidity 100    
Minimum Humidity 51    
Precipitation  
Precipitation 0.02 in - - ()
Sea Level Pressure  
Sea Level Pressure 30.33 in    
Wind  
Wind Speed 3 mph (SSW)    
Max Wind Speed 10 mph    
Max Gust Speed 17 mph    
Visibility 8 miles    
Events Rain    
Averages and records for this station are not official NWS values.
T = Trace of Precipitation, MM = Missing Value Source: NWS Daily Summary

Daily Weather History Graph

Daily Weather History Graph

Search for Another Location

Airport or City:

Astronomy

Jan. 28, 2013 Rise Set
Actual Time 7:24 AM EST 5:41 PM EST
Civil Twilight 6:57 AM EST 6:09 PM EST
Nautical Twilight 6:26 AM EST 6:40 PM EST
Astronomical Twilight 5:55 AM EST 7:10 PM EST
Moon 7:30 PM EST (1/28) 7:53 AM EST (1/28)
Length of Visible Light 11h 11m
Length of Day
10h 17m
Full, 98% of the Moon is Illuminated
Jan 28
Full
Feb 3
Last Quarter
Feb 10
New
Feb 17
First Quarter
Feb 25
Full

Hourly Weather History & Observations

Time (EST) Temp. Windchill Dew Point Humidity Pressure Visibility Wind Dir Wind Speed Gust Speed Precip Events Conditions
12:15 AM 37.4 °F - 26.6 °F 65% 30.45 in 10.0 mi Calm Calm - N/A   Overcast
12:35 AM 37.4 °F 34.9 °F 26.6 °F 65% 30.45 in 10.0 mi SSW 3.5 mph - N/A   Overcast
12:55 AM 37.4 °F 34.9 °F 26.6 °F 65% 30.45 in 10.0 mi South 3.5 mph - N/A   Overcast
1:15 AM 37.4 °F 34.9 °F 28.4 °F 70% 30.44 in 10.0 mi South 3.5 mph - N/A   Drizzle
1:35 AM 37.4 °F 34.9 °F 28.4 °F 70% 30.44 in 10.0 mi South 3.5 mph - N/A Rain Rain
1:55 AM 35.6 °F 31.7 °F 30.2 °F 81% 30.45 in 10.0 mi South 4.6 mph - N/A   Drizzle
2:15 AM 35.6 °F 32.8 °F 30.2 °F 81% 30.45 in 10.0 mi SSW 3.5 mph - N/A   Light Drizzle
2:35 AM 35.6 °F - 30.2 °F 81% 30.44 in 7.0 mi Calm Calm - N/A Rain Rain
2:55 AM 35.6 °F 32.8 °F 30.2 °F 81% 30.43 in 10.0 mi South 3.5 mph - N/A   Light Drizzle
3:15 AM 35.6 °F 31.7 °F 30.2 °F 81% 30.43 in 10.0 mi South 4.6 mph - N/A   Drizzle
3:35 AM 35.6 °F 32.8 °F 30.2 °F 81% 30.42 in 7.0 mi South 3.5 mph - N/A   Drizzle
3:55 AM 35.6 °F 32.8 °F 30.2 °F 81% 30.41 in 7.0 mi South 3.5 mph - N/A Rain Light Rain
4:15 AM 35.6 °F - 30.2 °F 81% 30.41 in 7.0 mi Calm Calm - N/A   Drizzle
4:35 AM 35.6 °F 32.8 °F 32.0 °F 87% 30.42 in 7.0 mi South 3.5 mph - N/A Rain Rain
4:55 AM 35.6 °F - 35.6 °F 100% 30.42 in 5.0 mi Calm Calm - N/A Rain Light Rain
5:15 AM 35.6 °F 32.8 °F 35.6 °F 100% 30.41 in 5.0 mi South 3.5 mph - N/A   Light Drizzle
5:35 AM 35.6 °F - 35.6 °F 100% 30.41 in 5.0 mi Calm Calm - N/A   Overcast
5:55 AM 35.6 °F - 35.6 °F 100% 30.41 in 4.0 mi Calm Calm - 0.01 in Rain Light Rain
6:15 AM 35.6 °F 32.8 °F 35.6 °F 100% 30.41 in 4.0 mi South 3.5 mph - 0.01 in   Light Drizzle
6:35 AM 35.6 °F - 35.6 °F 100% 30.42 in 4.0 mi Calm Calm - 0.01 in Rain Light Rain
6:55 AM 35.6 °F 32.8 °F 35.6 °F 100% 30.42 in 4.0 mi South 3.5 mph - N/A   Mostly Cloudy
7:15 AM 35.6 °F - 35.6 °F 100% 30.41 in 4.0 mi Calm Calm - N/A   Light Drizzle
7:35 AM 35.6 °F - 35.6 °F 100% 30.42 in 5.0 mi Calm Calm - N/A   Overcast
7:55 AM 35.6 °F 32.8 °F 35.6 °F 100% 30.43 in 4.0 mi SSW 3.5 mph - N/A   Scattered Clouds
8:15 AM 35.6 °F - 35.6 °F 100% 30.42 in 4.0 mi Calm Calm - N/A   Clear
8:35 AM 37.4 °F 33.8 °F 37.4 °F 100% 30.41 in 4.0 mi South 4.6 mph - N/A   Clear
8:55 AM 37.4 °F 34.9 °F 37.4 °F 100% 30.41 in 5.0 mi SSW 3.5 mph - N/A   Clear
9:15 AM 37.4 °F 33.8 °F 35.6 °F 93% 30.40 in 5.0 mi South 4.6 mph - N/A   Clear
9:35 AM 39.2 °F 35.0 °F 33.8 °F 81% 30.40 in 7.0 mi SSW 5.8 mph - N/A   Clear
9:55 AM 42.8 °F 41.1 °F 33.8 °F 70% 30.40 in 7.0 mi SSW 3.5 mph - N/A   Clear
10:15 AM 42.8 °F 39.3 °F 33.8 °F 70% 30.40 in 10.0 mi SSW 5.8 mph - N/A   Clear
10:35 AM 44.6 °F 39.7 °F 32.0 °F 61% 30.39 in 10.0 mi SW 9.2 mph - N/A   Clear
10:55 AM 46.4 °F 41.5 °F 32.0 °F 57% 30.38 in 10.0 mi SSW 10.4 mph 17.3 mph N/A   Clear
11:15 AM 48.2 °F - 33.8 °F 58% 30.37 in 10.0 mi WSW 6.9 mph - N/A   Clear
11:35 AM 48.2 °F - 33.8 °F 58% 30.36 in 10.0 mi SW 9.2 mph - N/A   Clear
11:55 AM 50.0 °F - 33.8 °F 54% 30.35 in 10.0 mi SW 8.1 mph - N/A   Clear
12:15 PM 51.8 °F - 35.6 °F 54% 30.33 in 10.0 mi SW 8.1 mph - N/A   Clear
12:35 PM 53.6 °F - 35.6 °F 51% 30.32 in 10.0 mi SW 6.9 mph - N/A   Clear
1:15 PM 53.6 °F - 37.4 °F 54% 30.29 in 10.0 mi SW 9.2 mph - N/A   Overcast
1:35 PM 53.6 °F - 37.4 °F 54% 30.27 in 10.0 mi SSW 8.1 mph - N/A   Overcast
1:55 PM 53.6 °F - 39.2 °F 58% 30.26 in 10.0 mi SSW 6.9 mph - N/A   Overcast
2:15 PM 53.6 °F - 39.2 °F 58% 30.25 in 10.0 mi SSW 3.5 mph - N/A   Overcast
2:35 PM 53.6 °F - 41.0 °F 62% 30.25 in 10.0 mi SSW 6.9 mph - N/A   Overcast
2:55 PM 53.6 °F - 41.0 °F 62% 30.25 in 10.0 mi SSW 5.8 mph - N/A   Overcast
3:15 PM 53.6 °F - 41.0 °F 62% 30.25 in 10.0 mi SW 4.6 mph - N/A   Overcast
3:35 PM 53.6 °F - 41.0 °F 62% 30.24 in 10.0 mi SSW 4.6 mph - N/A   Overcast
3:55 PM 53.6 °F - 41.0 °F 62% 30.23 in 10.0 mi SSW 3.5 mph - N/A   Overcast
4:15 PM 51.8 °F - 41.0 °F 67% 30.23 in 10.0 mi SSW 5.8 mph - N/A   Overcast
4:35 PM 51.8 °F - 41.0 °F 67% 30.23 in 10.0 mi SW 5.8 mph - N/A   Overcast
4:55 PM 51.8 °F - 41.0 °F 67% 30.24 in 10.0 mi SSW 4.6 mph - N/A   Scattered Clouds
5:15 PM 50.0 °F - 41.0 °F 71% 30.24 in 10.0 mi SW 3.5 mph - N/A   Clear
5:35 PM 50.0 °F - 41.0 °F 71% 30.24 in 10.0 mi SSW 6.9 mph - N/A   Clear
5:55 PM 48.2 °F - 41.0 °F 76% 30.24 in 10.0 mi SW 3.5 mph - N/A   Clear
6:15 PM 48.2 °F - 41.0 °F 76% 30.25 in 10.0 mi SSW 3.5 mph - N/A   Clear
6:35 PM 48.2 °F - 41.0 °F 76% 30.25 in 10.0 mi SSW 4.6 mph - N/A   Clear
6:55 PM 48.2 °F - 41.0 °F 76% 30.25 in 10.0 mi SSW 3.5 mph - N/A   Clear
7:15 PM 46.4 °F 42.9 °F 39.2 °F 76% 30.25 in 10.0 mi SSW 6.9 mph - N/A   Scattered Clouds
7:35 PM 46.4 °F 44.3 °F 39.2 °F 76% 30.25 in 10.0 mi SW 4.6 mph - N/A   Scattered Clouds
7:55 PM 46.4 °F 44.3 °F 39.2 °F 76% 30.24 in 10.0 mi SSW 4.6 mph - N/A   Scattered Clouds
8:15 PM 48.2 °F - 39.2 °F 71% 30.23 in 10.0 mi SSW 5.8 mph - N/A   Mostly Cloudy
8:35 PM 48.2 °F - 41.0 °F 76% 30.23 in 10.0 mi Calm Calm - N/A   Mostly Cloudy
8:55 PM 46.4 °F - 41.0 °F 81% 30.23 in 10.0 mi Calm Calm - N/A   Mostly Cloudy
9:15 PM 46.4 °F - 41.0 °F 81% 30.23 in 10.0 mi Calm Calm - N/A   Scattered Clouds
9:35 PM 46.4 °F 45.2 °F 41.0 °F 81% 30.23 in 10.0 mi SSW 3.5 mph - N/A   Scattered Clouds
9:55 PM 46.4 °F 44.3 °F 41.0 °F 81% 30.22 in 10.0 mi South 4.6 mph - N/A   Mostly Cloudy
10:15 PM 46.4 °F 45.2 °F 41.0 °F 81% 30.22 in 10.0 mi SSW 3.5 mph - N/A   Mostly Cloudy
10:35 PM 46.4 °F - 41.0 °F 81% 30.21 in 10.0 mi Calm Calm - N/A   Scattered Clouds
10:55 PM 46.4 °F 44.3 °F 41.0 °F 81% 30.22 in 10.0 mi SSW 4.6 mph - N/A   Scattered Clouds
11:15 PM 46.4 °F - 41.0 °F 81% 30.22 in 7.0 mi Calm Calm - N/A   Scattered Clouds
11:35 PM 46.4 °F - 41.0 °F 81% 30.21 in 7.0 mi Calm Calm - N/A   Scattered Clouds
11:55 PM 46.4 °F 45.2 °F 41.0 °F 81% 30.22 in 7.0 mi SSW 3.5 mph - N/A   Clear